Weather History for KI35 - April, 2013

Change the Weather History Date:

Sunday, April 7, 2013

  Actual Average (KLOZ) Record (KLOZ)
Temperature  
Mean Temperature 61 °F 54 °F  
Max Temperature 71 °F 66 °F 84 °F (2001)
Min Temperature 51 °F 42 °F 21 °F (1982)
Degree Days  
Heating Degree Days 4 11  
Month to date heating degree days 86  
Since 1 July heating degree days 3911  
Cooling Degree Days 0 0  
Month to date cooling degree days 0  
Year to date cooling degree days 3  
Growing Degree Days 11 (Base 50)    
Moisture  
Dew Point 35 °F    
Average Humidity 36    
Maximum Humidity 47    
Minimum Humidity 26    
Precipitation  
Precipitation 0.00 in 0.13 in 2.02 in (1972)
Month to date precipitation 0.89  
Year to date precipitation 12.19  
Sea Level Pressure  
Sea Level Pressure 30.08 in    
Wind  
Wind Speed 3 mph (SW)    
Max Wind Speed 13 mph    
Max Gust Speed 26 mph    
Visibility 10 miles    
Events      
T = Trace of Precipitation, MM = Missing Value Source: NWS Daily Summary

Daily Weather History Graph

Daily Weather History Graph

Search for Another Location

Airport or City:

Trip Planner

Search our weather history database for the weather conditions in past years. The results will help you decide how hot, cold, wet, or windy it might be!

Date:

Astronomy

Apr. 07, 2013 Rise Set
Actual Time 7:10 AM EDT 8:01 PM EDT
Civil Twilight 6:43 AM EDT 8:27 PM EDT
Nautical Twilight 6:12 AM EDT 8:58 PM EDT
Astronomical Twilight 5:40 AM EDT 9:31 PM EDT
Moon 5:23 AM EDT (4/7) 5:35 PM EDT (4/7)
Length of Visible Light 13h 43m
Length of Day
12h 51m
Waning Crescent, 8% of the Moon is Illuminated
Apr 7
Waning Crescent
Apr 10
New
Apr 18
First Quarter
Apr 25
Full
May 2
Last Quarter

Hourly Weather History & Observations

Time (EDT) Temp. Dew Point Humidity Pressure Visibility Wind Dir Wind Speed Gust Speed Precip Events Conditions
12:15 AM 57.2 °F 35.6 °F 44% 30.08 in 10.0 mi SE 3.5 mph - N/A   Clear
12:35 AM 57.2 °F 33.8 °F 41% 30.08 in 10.0 mi Calm Calm - N/A   Clear
12:55 AM 57.2 °F 33.8 °F 41% 30.09 in 10.0 mi Calm Calm - N/A   Clear
1:15 AM 55.4 °F 33.8 °F 44% 30.09 in 10.0 mi ESE 3.5 mph - N/A   Clear
1:35 AM 55.4 °F 33.8 °F 44% 30.08 in 10.0 mi East 3.5 mph - N/A   Clear
2:15 AM 53.6 °F 33.8 °F 47% 30.08 in 10.0 mi Calm Calm - N/A   Clear
2:35 AM 55.4 °F 33.8 °F 44% 30.08 in 10.0 mi Calm Calm - N/A   Clear
2:55 AM 55.4 °F 33.8 °F 44% 30.07 in 10.0 mi Calm Calm - N/A   Clear
3:15 AM 53.6 °F 33.8 °F 47% 30.06 in 10.0 mi East 3.5 mph - N/A   Clear
3:35 AM 55.4 °F 33.8 °F 44% 30.06 in 10.0 mi Calm Calm - N/A   Clear
3:55 AM 55.4 °F 33.8 °F 44% 30.06 in 10.0 mi Calm Calm - N/A   Clear
4:15 AM 55.4 °F 32.0 °F 41% 30.06 in 10.0 mi Calm Calm - N/A   Clear
4:35 AM 55.4 °F 32.0 °F 41% 30.06 in 10.0 mi Calm Calm - N/A   Clear
4:55 AM 53.6 °F 32.0 °F 44% 30.06 in 10.0 mi Calm Calm - N/A   Clear
5:15 AM 55.4 °F 32.0 °F 41% 30.06 in 10.0 mi Calm Calm - N/A   Clear
5:35 AM 53.6 °F 32.0 °F 44% 30.07 in 10.0 mi Calm Calm - N/A   Clear
5:55 AM 53.6 °F 32.0 °F 44% 30.08 in 10.0 mi West 3.5 mph - N/A   Clear
6:15 AM 51.8 °F 32.0 °F 47% 30.08 in 10.0 mi Calm Calm - N/A   Clear
6:35 AM 53.6 °F 32.0 °F 44% 30.08 in 10.0 mi Calm Calm - N/A   Clear
6:55 AM 55.4 °F 32.0 °F 41% 30.09 in 10.0 mi Calm Calm - N/A   Clear
7:15 AM 55.4 °F 33.8 °F 44% 30.09 in 10.0 mi Calm Calm - N/A   Clear
7:35 AM 55.4 °F 33.8 °F 44% 30.10 in 10.0 mi West 4.6 mph - N/A   Clear
7:55 AM 57.2 °F 35.6 °F 44% 30.10 in 10.0 mi WSW 8.1 mph - N/A   Clear
8:15 AM 59.0 °F 35.6 °F 42% 30.11 in 10.0 mi SW 4.6 mph 16.1 mph N/A   Clear
8:35 AM 59.0 °F 35.6 °F 42% 30.11 in 10.0 mi Calm Calm - N/A   Clear
8:55 AM 60.8 °F 35.6 °F 39% 30.12 in 10.0 mi SW 8.1 mph - N/A   Clear
9:15 AM 62.6 °F 35.6 °F 37% 30.12 in 10.0 mi WSW 10.4 mph - N/A   Clear
9:35 AM 60.8 °F 35.6 °F 39% 30.12 in 10.0 mi WSW 5.8 mph 18.4 mph N/A   Clear
9:55 AM 62.6 °F 37.4 °F 39% 30.12 in 10.0 mi WSW 10.4 mph 18.4 mph N/A   Clear
10:15 AM 64.4 °F 37.4 °F 37% 30.12 in 10.0 mi SW 10.4 mph - N/A   Clear
10:35 AM 64.4 °F 37.4 °F 37% 30.13 in 10.0 mi SW 4.6 mph 17.3 mph N/A   Clear
10:55 AM 64.4 °F 37.4 °F 37% 30.13 in 10.0 mi SW 4.6 mph - N/A   Clear
11:15 AM 64.4 °F 37.4 °F 37% 30.13 in 10.0 mi SSW 6.9 mph 16.1 mph N/A   Clear
11:35 AM 66.2 °F 37.4 °F 35% 30.13 in 10.0 mi SW 11.5 mph 21.9 mph N/A   Clear
11:55 AM 66.2 °F 37.4 °F 35% 30.12 in 10.0 mi SW 12.7 mph 25.3 mph N/A   Clear
12:15 PM 68.0 °F 39.2 °F 35% 30.13 in 10.0 mi WSW 8.1 mph 26.5 mph N/A   Clear
12:35 PM 66.2 °F 37.4 °F 35% 30.12 in 10.0 mi SW 12.7 mph 18.4 mph N/A   Clear
12:55 PM 68.0 °F 39.2 °F 35% 30.11 in 10.0 mi SW 9.2 mph 19.6 mph N/A   Scattered Clouds
1:15 PM 68.0 °F 37.4 °F 33% 30.10 in 10.0 mi SW 10.4 mph 17.3 mph N/A   Scattered Clouds
1:35 PM 68.0 °F 37.4 °F 33% 30.10 in 10.0 mi SSW 10.4 mph 18.4 mph N/A   Clear
1:55 PM 68.0 °F 37.4 °F 33% 30.10 in 10.0 mi SW 6.9 mph - N/A   Clear
2:15 PM 68.0 °F 37.4 °F 33% 30.08 in 10.0 mi SW 6.9 mph - N/A   Scattered Clouds
2:35 PM 69.8 °F 37.4 °F 31% 30.08 in 10.0 mi SW 9.2 mph 17.3 mph N/A   Clear
2:55 PM 71.6 °F 37.4 °F 29% 30.06 in 10.0 mi SSE 6.9 mph - N/A   Clear
3:15 PM 71.6 °F 37.4 °F 29% 30.06 in 10.0 mi SSW 5.8 mph - N/A   Clear
3:35 PM 71.6 °F 37.4 °F 29% 30.05 in 10.0 mi WSW 9.2 mph - N/A   Scattered Clouds
3:55 PM 71.6 °F 37.4 °F 29% 30.05 in 10.0 mi SSW 10.4 mph 17.3 mph N/A   Clear
4:15 PM 71.6 °F 37.4 °F 29% 30.04 in 10.0 mi South 6.9 mph - N/A   Clear
4:35 PM 69.8 °F 37.4 °F 31% 30.05 in 10.0 mi SSW 10.4 mph 16.1 mph N/A   Scattered Clouds
4:55 PM 71.6 °F 37.4 °F 29% 30.04 in 10.0 mi WSW 6.9 mph 18.4 mph N/A   Clear
5:15 PM 69.8 °F 37.4 °F 31% 30.05 in 10.0 mi South 4.6 mph - N/A   Clear
5:35 PM 71.6 °F 35.6 °F 27% 30.04 in 10.0 mi WSW 5.8 mph - N/A   Clear
5:55 PM 71.6 °F 35.6 °F 27% 30.05 in 10.0 mi SSW 9.2 mph 16.1 mph N/A   Clear
6:15 PM 69.8 °F 35.6 °F 28% 30.05 in 10.0 mi Calm Calm - N/A   Clear
6:35 PM 69.8 °F 35.6 °F 28% 30.05 in 10.0 mi SSW 3.5 mph - N/A   Clear
6:55 PM 69.8 °F 33.8 °F 27% 30.05 in 10.0 mi SSW 5.8 mph - N/A   Scattered Clouds
7:15 PM 69.8 °F 33.8 °F 27% 30.05 in 10.0 mi Calm Calm - N/A   Scattered Clouds
7:35 PM 68.0 °F 33.8 °F 28% 30.04 in 10.0 mi Calm Calm - N/A   Mostly Cloudy
7:55 PM 68.0 °F 32.0 °F 26% 30.04 in 10.0 mi Calm Calm - N/A   Overcast
8:15 PM 68.0 °F 32.0 °F 26% 30.05 in 10.0 mi Calm Calm - N/A   Overcast
8:35 PM 68.0 °F 32.0 °F 26% 30.05 in 10.0 mi Calm Calm - N/A   Overcast
8:55 PM 66.2 °F 32.0 °F 28% 30.05 in 10.0 mi Calm Calm - N/A   Overcast
9:15 PM 66.2 °F 33.8 °F 30% 30.05 in 10.0 mi South 3.5 mph - N/A   Overcast
9:35 PM 66.2 °F 33.8 °F 30% 30.06 in 10.0 mi Calm Calm - N/A   Overcast
9:55 PM 66.2 °F 33.8 °F 30% 30.06 in 10.0 mi Calm Calm - N/A   Overcast
10:15 PM 66.2 °F 35.6 °F 32% 30.06 in 10.0 mi Calm Calm - N/A   Overcast
10:35 PM 66.2 °F 35.6 °F 32% 30.06 in 10.0 mi West 4.6 mph - N/A   Overcast
10:55 PM 64.4 °F 35.6 °F 34% 30.06 in 10.0 mi Calm Calm - N/A   Overcast
11:15 PM 64.4 °F 37.4 °F 37% 30.06 in 10.0 mi West 3.5 mph - N/A   Overcast
11:35 PM 64.4 °F 37.4 °F 37% 30.06 in 10.0 mi Calm Calm - N/A   Overcast
11:55 PM 64.4 °F 37.4 °F 37% 30.06 in 10.0 mi Calm Calm - N/A   Scattered Clouds